Location: Passo di Treia
(43.2833°N, 13.3333°E)
Time: 04:34:13
(UTC+00:00)

Cosmos 1302 Rocket - Pass Details

Date: 09 December 2019
Orbit: 757 x 776 km, 74.0° (Epoch: 17 January)

Event Time Altitude Azimuth Distance (km) Brightness Sun altitude
Rises 16:04:12 0° 338° (NNW) 3,258 7.2 -6.2°
Reaches altitude 10° 16:06:36 10° 337° (NNW) 2,324 6.5 -6.5°
Maximum altitude 16:11:52 80° 252° (WSW) 785 4.2 -7.4°
Drops below altitude 10° 16:17:05 10° 166° (SSE) 2,296 6.6 -8.3°
Sets 16:19:26 0° 165° (SSE) 3,214 7.3 -8.7°
